Stuart, FL

9:43 PM EDT on June 23, 2017 (GMT -0400)
Witham

Weather History for KSUA - September, 2013

Change the Weather History Date:

Saturday, September 14, 2013

  Actual Average Record
Temperature  
Mean Temperature 83 °F -  
Max Temperature 89 °F 88 °F 95 °F (1950)
Min Temperature 77 °F 73 °F 66 °F (1968)
Cooling Degree Days 18    
Growing Degree Days 33 (Base 50)    
Moisture  
Dew Point 71 °F    
Average Humidity 73    
Maximum Humidity 89    
Minimum Humidity 46    
Precipitation  
Precipitation 0.00 in - - ()
Sea Level Pressure  
Sea Level Pressure 29.91 in    
Wind  
Wind Speed 4 mph (SE)    
Max Wind Speed 14 mph    
Max Gust Speed 17 mph    
Visibility 9 miles    
Events Thunderstorm    
Averages and records for this station are not official NWS values.
T = Trace of Precipitation, MM = Missing Value Source: NWS Daily Summary

Daily Weather History Graph

Daily Weather History Graph

Search for Another Location

Airport or City:

Trip Planner

Search our weather history database for the weather conditions in past years. The results will help you decide how hot, cold, wet, or windy it might be!

Date:

Astronomy

Sep. 14, 2013 Rise Set
Actual Time 7:05 AM EDT 7:26 PM EDT
Civil Twilight 6:42 AM EDT 7:49 PM EDT
Nautical Twilight 6:15 AM EDT 8:16 PM EDT
Astronomical Twilight 5:47 AM EDT 8:44 PM EDT
Moon 3:46 PM EDT (9/14) 1:57 AM EDT (9/14)
Length of Visible Light 13h 06m
Length of Day
12h 20m
Waxing Gibbous, 72% of the Moon is Illuminated
Sep 14
Waxing Gibbous
Sep 19
Full
Sep 26
Last Quarter
Oct 4
New
Oct 11
First Quarter

Hourly Weather History & Observations

Time (EDT) Temp. Heat Index Dew Point Humidity Pressure Visibility Wind Dir Wind Speed Gust Speed Precip Events Conditions
12:15 AM 80.6 °F 84.6 °F 71.6 °F 74% 29.88 in 10.0 mi SSE 3.5 mph - N/A   Clear
12:35 AM 78.8 °F - 71.6 °F 78% 29.88 in 10.0 mi SSE 3.5 mph - N/A   Clear
12:55 AM 78.8 °F - 71.6 °F 78% 29.88 in 10.0 mi South 3.5 mph - N/A   Clear
1:15 AM 78.8 °F - 71.6 °F 78% 29.88 in 10.0 mi South 3.5 mph - N/A   Clear
1:35 AM 78.8 °F - 71.6 °F 78% 29.88 in 10.0 mi South 4.6 mph - N/A   Clear
1:55 AM 78.8 °F - 71.6 °F 78% 29.87 in 10.0 mi South 3.5 mph - N/A   Clear
2:15 AM 78.8 °F - 71.6 °F 78% 29.87 in 10.0 mi SSW 3.5 mph - N/A   Clear
2:35 AM 78.8 °F - 71.6 °F 78% 29.86 in 10.0 mi Calm Calm - N/A   Clear
2:55 AM 78.8 °F - 71.6 °F 78% 29.86 in 10.0 mi Calm Calm - N/A   Clear
3:15 AM 78.8 °F - 71.6 °F 78% 29.86 in 10.0 mi Calm Calm - N/A   Clear
3:35 AM 78.8 °F - 71.6 °F 78% 29.85 in 10.0 mi Calm Calm - N/A   Clear
3:55 AM 77.0 °F - 71.6 °F 83% 29.85 in 10.0 mi Calm Calm - N/A   Clear
4:15 AM 77.0 °F - 71.6 °F 83% 29.85 in 10.0 mi Calm Calm - N/A   Clear
4:35 AM 77.0 °F - 71.6 °F 83% 29.85 in 10.0 mi Calm Calm - N/A   Clear
4:55 AM 77.0 °F - 71.6 °F 83% 29.86 in 10.0 mi Calm Calm - N/A   Clear
5:15 AM 77.0 °F - 71.6 °F 83% 29.86 in 10.0 mi Calm Calm - N/A   Clear
5:35 AM 77.0 °F - 71.6 °F 83% 29.86 in 10.0 mi Calm Calm - N/A   Clear
5:55 AM 77.0 °F - 71.6 °F 83% 29.87 in 10.0 mi Calm Calm - N/A   Clear
6:15 AM 77.0 °F - 71.6 °F 83% 29.87 in 10.0 mi Calm Calm - N/A   Clear
6:47 AM 77.0 °F - 71.6 °F 83% 29.88 in 7.0 mi Calm Calm - N/A   Partly Cloudy
7:47 AM 77.0 °F - 73.4 °F 89% 29.90 in 7.0 mi Calm Calm - N/A   Clear
8:47 AM 80.6 °F 85.4 °F 73.4 °F 79% 29.91 in 7.0 mi Variable 3.5 mph - N/A   Partly Cloudy
9:47 AM 84.2 °F 90.9 °F 73.4 °F 70% 29.93 in 7.0 mi SSW 4.6 mph - N/A   Partly Cloudy
10:47 AM 86.0 °F 91.8 °F 71.6 °F 62% 29.94 in 6.0 mi South 8.1 mph - N/A   Haze
11:47 AM 86.0 °F 89.4 °F 68.0 °F 55% 29.95 in 6.0 mi Calm Calm - N/A   Haze
12:47 PM 86.0 °F 91.8 °F 71.6 °F 62% 29.94 in 6.0 mi East 6.9 mph - N/A   Haze
1:47 PM 89.6 °F 94.7 °F 69.8 °F 52% 29.93 in 6.0 mi East 9.2 mph - N/A   Haze
2:47 PM 89.6 °F 93.4 °F 68.0 °F 49% 29.92 in 7.0 mi ESE 12.7 mph - N/A   Scattered Clouds
3:47 PM 89.6 °F 92.2 °F 66.2 °F 46% 29.90 in 7.0 mi ESE 13.8 mph - N/A   Scattered Clouds
4:47 PM 84.2 °F 89.6 °F 71.6 °F 66% 29.92 in 7.0 mi ESE 11.5 mph 17.3 mph N/A Thunderstorm Mostly Cloudy
5:47 PM 84.2 °F 90.9 °F 73.4 °F 70% 29.92 in 7.0 mi ESE 11.5 mph - N/A Thunderstorm Mostly Cloudy
6:47 PM 84.2 °F 90.9 °F 73.4 °F 70% 29.93 in 7.0 mi ESE 9.2 mph - N/A   Mostly Cloudy
8:15 PM 82.4 °F 87.2 °F 71.6 °F 70% 29.94 in 10.0 mi ESE 6.9 mph - N/A   Clear
8:35 PM 82.4 °F 87.2 °F 71.6 °F 70% 29.95 in 10.0 mi East 8.1 mph - N/A   Clear
8:55 PM 82.4 °F 87.2 °F 71.6 °F 70% 29.95 in 10.0 mi East 4.6 mph - N/A   Clear
9:15 PM 82.4 °F 87.2 °F 71.6 °F 70% 29.96 in 10.0 mi East 8.1 mph - N/A   Clear
9:35 PM 82.4 °F 87.2 °F 71.6 °F 70% 29.97 in 10.0 mi ESE 6.9 mph - N/A   Clear
9:55 PM 82.4 °F 87.2 °F 71.6 °F 70% 29.98 in 10.0 mi ESE 9.2 mph - N/A   Clear
10:15 PM 82.4 °F 87.2 °F 71.6 °F 70% 29.99 in 10.0 mi SE 5.8 mph - N/A   Clear
10:35 PM 82.4 °F 87.2 °F 71.6 °F 70% 30.00 in 10.0 mi SE 4.6 mph - N/A   Clear
10:55 PM 82.4 °F 87.2 °F 71.6 °F 70% 30.00 in 10.0 mi SE 6.9 mph - N/A   Clear
11:15 PM 82.4 °F 87.2 °F 71.6 °F 70% 30.00 in 10.0 mi SE 6.9 mph - N/A   Clear
11:35 PM 80.6 °F 84.6 °F 71.6 °F 74% 30.00 in 10.0 mi ESE 4.6 mph - N/A   Clear
11:55 PM 80.6 °F 84.6 °F 71.6 °F 74% 30.00 in 10.0 mi ESE 3.5 mph - N/A   Clear